• Join FlightAware (Why Join?)
  • Login
  • US Flag 
02:10PM EDT


 

Airport Tracker/Info


-or-


 

Live Flight TrackerFlight Track Log ✈ N711FG ✈ 02-May-2013 ✈ KSDF - KGPT

Flight Track Log - Related Links

Times and Time Zones

All times are in EDT time to prevent confusion due to time zone crossing. See the N711FG flight status page for this flight to view local times or setup timezone preferences in your user account.

Time Position Orientation Groundspeed Altitude Reporting Facility
EDT Latitude Longitude Course Direction KTS MPH feet Rate Location/Type
02:17PM 38.1500 -85.7167 160° South 202 232 1,800  Level Louisville TRACON
02:18PM 38.0931 -85.6908 160° South 231 266 5,300 3,480 Climbing Indianapolis Center
02:19PM 38.0306 -85.7125 195° South 245 282 8,700 2,700 Climbing Indianapolis Center
02:20PM 37.9844 -85.7994 236° Southwest 295 339 11,000 2,640 Climbing Indianapolis Center
02:21PM 37.9611 -85.9033 254° West 309 356 14,200 2,880 Climbing Indianapolis Center
02:22PM 37.9411 -86.0142 257° West 318 366 17,000 2,640 Climbing Indianapolis Center
02:23PM 37.9172 -86.1292 255° West 332 382 19,700 2,640 Climbing Indianapolis Center
02:24PM 37.8758 -86.2331 243° Southwest 349 402 22,500 2,940 Climbing Indianapolis Center
02:25PM 37.7786 -86.2767 200° South 330 380 25,800 2,520 Climbing Indianapolis Center
02:26PM 37.6856 -86.2986 191° South 336 387 27,800 1,740 Climbing Indianapolis Center
02:27PM 37.5844 -86.3231 191° South 361 415 29,400 1,620 Climbing Indianapolis Center
02:28PM 37.5086 -86.3414 191° South 391 450 30,500 1,620 Climbing Memphis Center
02:29PM 37.4053 -86.3703 193° South 404 465 32,000 960 Climbing Memphis Center
02:30PM 37.3503 -86.3842 191° South 401 461 32,000  Level Indianapolis Center
02:30PM 37.2894 -86.3969 189° South 418 481 32,000 180 Level Memphis Center
02:31PM 37.1697 -86.4289 192° South 433 498 32,300 420 Climbing Memphis Center
02:32PM 37.0497 -86.4581 191° South 444 511 32,900 540 Climbing Memphis Center
02:33PM 36.9300 -86.4900 192° South 444 511 33,400 420 Climbing Memphis Center
02:34PM 36.8222 -86.5158 191° South 444 511 33,800 360 Climbing Memphis Center
02:35PM 36.7003 -86.5450 191° South 444 511 34,200 960 Climbing Memphis Center
02:36PM 36.5825 -86.5739 191° South 444 511 35,800 1,500 Climbing Memphis Center
02:37PM 36.4664 -86.6000 190° South 436 502 37,300 1,500 Climbing Memphis Center
02:38PM 36.3361 -86.6292 190° South 431 496 38,800 840 Climbing Memphis Center
02:39PM 36.2181 -86.6628 193° South 431 496 39,000 60 Climbing Memphis Center
02:40PM 36.0983 -86.6992 194° South 441 507 39,000  Level Memphis Center
02:41PM 35.9811 -86.7531 200° South 447 514 39,000  Level Memphis Center
02:42PM 35.8639 -86.8069 200° South 453 521 39,000 300 Level Memphis Center
02:43PM 35.7608 -86.8522 200° South 453 521 39,600 480 Climbing Memphis Center
02:44PM 35.6475 -86.9031 200° South 438 504 40,000 180 Climbing Memphis Center
02:45PM 35.5342 -86.9536 200° South 438 504 40,000  Level Memphis Center
02:46PM 35.4208 -87.0017 199° South 443 510 40,000  Level Memphis Center
02:47PM 35.3117 -87.0517 200° South 430 495 40,000  Level Memphis Center
02:48PM 35.1981 -87.0994 199° South 430 495 40,000  Level Memphis Center
02:49PM 35.0703 -87.1578 200° South 437 503 40,000  Level Memphis Center
02:50PM 34.9567 -87.2050 199° South 442 509 40,000  Level Memphis Center
02:51PM 34.8433 -87.2575 201° Southwest 442 509 40,000  Level Memphis Center
02:52PM 34.7317 -87.2994 197° South 442 509 40,000  Level Memphis Center
02:53PM 34.6203 -87.3514 201° Southwest 442 509 40,000  Level Memphis Center
02:54PM 34.5108 -87.3931 197° South 431 496 40,000  Level Memphis Center
02:55PM 34.4014 -87.4397 199° South 425 489 40,000  Level Memphis Center
02:56PM 34.2917 -87.4861 199° South 419 482 40,000  Level Memphis Center
02:57PM 34.1844 -87.5350 201° Southwest 419 482 40,000  Level Memphis Center
02:58PM 34.0747 -87.5786 198° South 419 482 40,000  Level Memphis Center
02:59PM 33.9653 -87.6247 199° South 418 481 40,000  Level Memphis Center
03:00PM 33.8578 -87.6708 200° South 423 487 40,000  Level Memphis Center
03:01PM 33.7439 -87.7242 201° Southwest 421 484 40,000  Level Memphis Center
03:02PM 33.6364 -87.7675 199° South 421 484 40,000  Level Memphis Center
03:03PM 33.5267 -87.8131 199° South 421 484 40,000  Level Memphis Center
03:04PM 33.4169 -87.8586 199° South 421 484 40,000  Level Memphis Center
03:05PM 33.3053 -87.9064 200° South 421 484 40,000  Level Memphis Center
03:06PM 33.1975 -87.9492 198° South 421 484 40,000  Level Memphis Center
03:07PM 33.0836 -87.9994 200° South 421 484 40,000  Level Memphis Center
03:08PM 32.9781 -88.0444 200° South 421 484 40,000  Level Memphis Center
03:09PM 32.8642 -88.0917 199° South 443 510 40,000  Level Memphis Center
03:10PM 32.7564 -88.1389 200° South 443 510 40,000  Level Memphis Center
03:11PM 32.6425 -88.1861 199° South 437 503 40,000  Level Memphis Center
03:12PM 32.5328 -88.2358 201° Southwest 432 497 40,000 -840 Level Memphis Center
03:13PM 32.4292 -88.2800 200° South 426 490 38,400 -1,680 Descending Memphis Center
03:14PM 32.3150 -88.3269 199° South 431 496 36,700 -1,620 Descending Memphis Center
03:15PM 32.1925 -88.3714 197° South 428 493 35,200 -1,380 Descending Memphis Center
03:16PM 32.0825 -88.4156 199° South 421 484 34,000 -1,680 Descending Memphis Center
03:18PM 31.9311 -88.4825 201° Southwest 402 463 31,000 -2,340 Descending Houston Center
03:19PM 31.8231 -88.5325 201° Southwest 412 474 28,000 -1,500 Descending Houston Center
03:20PM 31.6872 -88.5917 200° South 431 496 28,000  Level Houston Center
03:21PM 31.5722 -88.6414 200° South 442 509 28,000 -240 Level Houston Center
03:22PM 31.4581 -88.6881 199° South 438 504 27,600 -1,800 Descending Houston Center
03:23PM 31.3464 -88.7375 201° Southwest 434 499 24,300 -3,180 Descending Houston Center
03:24PM 31.2369 -88.7839 200° South 427 491 21,100 -3,900 Descending Houston Center
03:25PM 31.1064 -88.8386 200° South 420 483 16,300 -3,960 Descending Houston Center
03:26PM 31.0053 -88.8844 201° Southwest 403 464 13,000 -3,060 Descending Houston Center
03:27PM 30.9111 -88.9261 201° Southwest 377 434 10,000 -2,280 Descending Houston Center
03:28PM 30.8292 -88.9769 208° Southwest 328 377 8,300 -1,980 Descending Houston Center
03:29PM 30.7597 -89.0283 212° Southwest 300 345 6,000 -1,560 Descending Houston Center
03:30PM 30.6975 -89.0753 213° Southwest 275 316 5,100 -1,380 Descending Houston Center
03:31PM 30.6333 -89.1233 213° Southwest 273 314 3,200 -1,440 Descending Houston Center
03:32PM 30.5744 -89.1650 211° Southwest 256 295 2,200 -660 Descending Houston Center
03:33PM 30.5117 -89.1947 202° Southwest 218 251 1,900 -300 Descending Houston Center
03:34PM 30.4767 -89.1556 136° Southeast 183 211 1,700 -540 Descending Houston Center
03:35PM 30.4464 -89.1197 134° Southeast 163 188 900 -540 Descending Houston Center
03:36PM 30.4197 -89.0867 133° Southeast 159 183 600 -300 Descending Houston Center
03:38PM 30.4073 -89.0701 135° Southeast  Level Estimated
03:45PM 30.4073 -89.0701 135° Southeast  Level Estimated